Lexington Weather

Lexington, Massachusetts, USA

72°F
9/22/2021 2:01pm 
  • Lexington Conditions: Light rain, Mist, Overcast
  • Temperature: 71.8°F / 22.1°CColder 3.0°F than last hour.
  • Dew Point: 68.7°FIncreased 0.5°Fsince last hour.
  • Relative Humidity: 90%Increased 10.0% since last hour.
  • Wind: Wind from NW NW 3 mph, 10-min avg: 4 mph, gust: 11 mph
  • Barometer: 30.09 inFalling 0.02  inHg/hr Falling Slowly
  • Visibility: 2 miles
  • Rain Today: 0.00 in
  •   

Regional Weather Roundup
for Boston / Norton, MA

        
000
ASUS41 KBOX 170104
RWRBOX

REGIONAL WEATHER ROUNDUP
NATIONAL WEATHER SERVICE BOSTON/NORTON MA
900 PM EDT THU SEP 16 2021

NOTE:  "FAIR" INDICATES FEW OR NO CLOUDS BELOW 12,000 FEET WITH NO 
SIGNIFICANT WEATHER AND/OR OBSTRUCTIONS TO VISIBILITY.

MAZALL-170200-
EASTERN MASSACHUSETTS
  
CITY           SKY/WX    TMP DP  RH WIND       PRES   REMARKS
BOSTON         CLOUDY    66  61  84 NE8       30.35S                  
BEVERLY        CLOUDY    64  61  90 E6        30.35R                  
LAWRENCE       CLOUDY    64  60  87 E6        30.37R                  
BEDFORD        CLOUDY    64  60  87 E5        30.34R                  
BLUE HILL      NOT AVBL                                               
NORWOOD        CLOUDY    66  61  84 NE3       30.34S                  
MARSHFIELD     CLOUDY    66  63  88 NE6       30.32F                  
PLYMOUTH       CLOUDY    65  63  93 NE8       30.32F                  
TAUNTON        CLOUDY    66  63  90 CALM      30.32S                  
NEW BEDFORD    CLOUDY    66  64  93 NE6       30.30F                  
$$

MAZALL-170200-
CAPE COD AND THE ISLANDS
  
CITY           SKY/WX    TMP DP  RH WIND       PRES   REMARKS
FALMOUTH       CLOUDY    66  64  94 NE14      30.31S                  
HYANNIS        CLOUDY    67  66  97 NE8       30.30S                  
CHATHAM        CLOUDY    66  65  96 NE5       30.32R                  
PROVINCETOWN   CLOUDY    64  63  96 NE9       30.33F                  
NANTUCKET      CLOUDY    68  66  93 NE9       30.29R FOG              
MARTHAS VNYRD  CLOUDY    69  67  93 NE12      30.30R                  
$$
 
MAZALL-170200-
CENTRAL AND WESTERN MASSACHUSETTS
  
CITY           SKY/WX    TMP DP  RH WIND       PRES   REMARKS
WORCESTER      CLOUDY    62  59  90 E6        30.36R                  
FITCHBURG      CLOUDY    64  59  83 SE5       30.36R                  
ORANGE         CLOUDY    66  61  84 E8        30.35R                  
SPRINGFIELD    CLOUDY    67  62  85 SE6       30.31R                  
WESTFIELD      MOCLDY    68  65  90 E7        30.31R                  
NORTH ADAMS    CLOUDY    69  62  78 E8        30.30R                  
PITTSFIELD     CLOUDY    67  62  84 CALM      30.30S                  
$$
 
RIZALL-170200-
RHODE ISLAND
  
CITY           SKY/WX    TMP DP  RH WIND       PRES   REMARKS
PROVIDENCE     CLOUDY    67  63  87 NE8       30.32S                  
NEWPORT        CLOUDY    66  63  90 NE10      30.30S                  
BLOCK ISLAND   CLOUDY    67  65  93 NE13      30.29S                  
SMITHFIELD     CLOUDY    64  62  93 NE6       30.34S                  
WESTERLY       CLOUDY    67  65  93 NE10      30.29R                  
$$
 
CTZALL-170200-
CONNECTICUT
  
CITY           SKY/WX    TMP DP  RH WIND       PRES   REMARKS
BRADLEY INTL   CLOUDY    69  65  86 NE7       30.30R                  
HARTFORD       CLOUDY    72  64  76 VRB7      30.29R                  
BRIDGEPORT     CLOUDY    73  67  81 NE12      30.26R                  
DANBURY        CLOUDY    71  65  81 E8        30.29R                  
GROTON         MOCLDY    70  65  84 NE12      30.27S                  
NEW HAVEN      CLOUDY    73  68  84 NE7       30.27R                  
CHESTER        CLOUDY    70  66  88 VRB3      30.29S                  
MERIDEN        LGT RAIN  71  64  78 CALM      30.28S                  
WILLIMANTIC    CLOUDY    67  64  90 NE8       30.31R                  
OXFORD         CLOUDY    68  65  90 E8        30.30R                  
$$

MEZ002-015-021-024-NHZ003-005-008-011-012-014-VTZ005-008-170200-
NORTHERN NEW ENGLAND
  
CITY           SKY/WX    TMP DP  RH WIND       PRES   REMARKS
PORTLAND ME    CLEAR     60  55  83 CALM      30.38R                  
BANGOR ME      PTCLDY    58  55  90 CALM      30.36R                  
CONCORD NH     CLOUDY    63  56  78 SE3       30.36R                  
MANCHESTER NH  MOCLDY    64  56  75 E3        30.35R                  
NASHUA NH      CLOUDY    64  61  90 VRB5      30.37R                  
PORTSMOUTH NH  MOCLDY    63  58  83 E6        30.38R                  
JAFFREY NH     CLOUDY    63  60  90 CALM      30.36S                  
KEENE NH       PTCLDY    62  61  96 CALM      30.34R                  
BURLINGTON VT  CLEAR     63  58  83 E3        30.28R                  
MT. WASHINGTON PTCLDY    45  36  70 SW17        N/A                   
$$

NYZ052-076-170200-
EASTERN NEW YORK
  
CITY           SKY/WX    TMP DP  RH WIND       PRES   REMARKS
ALBANY         MOCLDY    68  62  81 E3        30.28R                  
NEW YORK CITY  CLOUDY    73  66  78 E14       30.23R                  
$$
 
ANZALL-170200-
MARINE OBSERVATIONS
  
STATION/POSITION TIME  TEMP    WIND        PRES    VSBY  WAVE
                       AIR SEA DIR/SP/G                  HT/PER
                 (UTC) (F)     (DEG/KT/KT) (MB)    (MI)  (FT/S)
BOSTON BUOY      0040      66   70/ 10/ 10 1027.7R
BUZZARDS BAY     0000           40/ 18/ 19 1026.7R
NANTUCKET SOUND  0040   69 72   50/ 14/ 16 1025.9R
MASS BAY-STELLWA 0004   64     100/ 10/ 12 1027.3R  1 7/8  2/ 4
ISLE OF SHOALS   0000   63      90/ 11/ 12 1027.1R
S OF BLOCK IS    0026      69                N/A           4/ 6
$$

......................KEY.........................
  SKY/WX - SKY CONDITION/PRESENT WEATHER
  TMP    - TEMPERATURE IN FAHRENHEIT
  DWPT   - DEWPOINT IN FAHRENHEIT
  RH     - RELATIVE HUMIDITY IN PERCENT
  WIND   - DIRECTION AND SPEED IN MPH
  PRES   - MEAN SEA LEVEL PRESSURE IN INCHES OF HG
  WCI    - WIND CHILL INDEX
  VSB    - VISIBILITY IN MILES
  HX     - HEAT INDEX
  TC     - TEMPERATURE IN CELSIUS
  VRB    - VARIABLE WIND DIRECTION
  N/A    - NOT AVAILABLE
  
      

Other recent Regional Weather Roundups

Wed Sep 22, 1:04pm

Wed Sep 22, 12:05pm

Wed Sep 22, 11:04am

Wed Sep 22, 10:04am

Wed Sep 22, 9:04am

Wed Sep 22, 8:04am

Wed Sep 22, 7:04am

Wed Sep 22, 6:04am

Wed Sep 22, 5:04am

Wed Sep 22, 4:04am

Wed Sep 22, 3:04am

Wed Sep 22, 2:04am

Wed Sep 22, 1:04am

Wed Sep 22, 12:04am

Tue Sep 21, 11:04pm

Tue Sep 21, 10:04pm

Tue Sep 21, 9:04pm

Tue Sep 21, 8:04pm

Tue Sep 21, 7:04pm

Tue Sep 21, 6:04pm

Tue Sep 21, 5:04pm

Tue Sep 21, 4:04pm

Tue Sep 21, 3:04pm

Tue Sep 21, 2:04pm

Tue Sep 21, 1:04pm

Tue Sep 21, 12:04pm

Tue Sep 21, 11:04am

Tue Sep 21, 10:04am

Tue Sep 21, 9:04am

Tue Sep 21, 8:04am

Tue Sep 21, 7:04am

Tue Sep 21, 6:04am

Tue Sep 21, 5:04am

Tue Sep 21, 4:04am

Tue Sep 21, 3:04am

Tue Sep 21, 2:04am

Tue Sep 21, 1:04am

Tue Sep 21, 12:04am

Mon Sep 20, 11:04pm

Mon Sep 20, 10:04pm

Mon Sep 20, 9:04pm

Mon Sep 20, 8:04pm

Mon Sep 20, 7:04pm

Mon Sep 20, 6:04pm

Mon Sep 20, 5:04pm

Mon Sep 20, 4:04pm

Mon Sep 20, 3:04pm

Mon Sep 20, 2:04pm

Mon Sep 20, 1:04pm

Mon Sep 20, 12:04pm

Mon Sep 20, 11:04am

Mon Sep 20, 10:04am

Mon Sep 20, 9:04am

Mon Sep 20, 7:04am

Mon Sep 20, 6:04am

Mon Sep 20, 5:04am

Mon Sep 20, 4:04am

Mon Sep 20, 3:04am

Mon Sep 20, 2:04am

Mon Sep 20, 1:04am

Mon Sep 20, 12:04am

Sun Sep 19, 11:04pm

Sun Sep 19, 10:04pm

Sun Sep 19, 9:04pm

Sun Sep 19, 8:04pm

Sun Sep 19, 7:04pm

Sun Sep 19, 6:04pm

Sun Sep 19, 5:04pm

Sun Sep 19, 4:04pm

Sun Sep 19, 3:04pm

Sun Sep 19, 2:05pm

Sun Sep 19, 1:04pm

Sun Sep 19, 12:04pm

Sun Sep 19, 11:04am

Sun Sep 19, 10:05am

Sun Sep 19, 9:04am

Sun Sep 19, 8:04am

Sun Sep 19, 7:04am

Sun Sep 19, 6:04am

Sun Sep 19, 5:04am

Sun Sep 19, 4:04am

Sun Sep 19, 3:04am

Sun Sep 19, 2:04am

Sun Sep 19, 1:04am

Sun Sep 19, 12:04am

Sat Sep 18, 11:05pm

Sat Sep 18, 10:04pm

Sat Sep 18, 9:04pm

Sat Sep 18, 8:04pm

Sat Sep 18, 7:04pm

Sat Sep 18, 6:04pm

Sat Sep 18, 5:04pm

Sat Sep 18, 4:04pm

Sat Sep 18, 3:04pm

Sat Sep 18, 2:04pm

Sat Sep 18, 1:04pm

Sat Sep 18, 12:04pm

Sat Sep 18, 11:04am

Sat Sep 18, 10:04am

Sat Sep 18, 9:04am

Sat Sep 18, 8:04am

Sat Sep 18, 7:04am

Sat Sep 18, 6:04am

Sat Sep 18, 5:04am

Sat Sep 18, 4:04am

Sat Sep 18, 3:04am

Sat Sep 18, 2:04am

Sat Sep 18, 1:04am

Sat Sep 18, 12:04am

Fri Sep 17, 11:04pm

Fri Sep 17, 10:04pm

Fri Sep 17, 9:04pm

Fri Sep 17, 8:04pm

Fri Sep 17, 7:04pm

Fri Sep 17, 6:04pm

Fri Sep 17, 5:04pm

Fri Sep 17, 4:04pm

Fri Sep 17, 3:04pm

Fri Sep 17, 2:04pm

Fri Sep 17, 1:04pm

Fri Sep 17, 12:05pm

Fri Sep 17, 11:04am

Fri Sep 17, 10:04am

Fri Sep 17, 9:04am

Fri Sep 17, 8:04am

Fri Sep 17, 7:04am

Fri Sep 17, 6:04am

Fri Sep 17, 5:04am

Fri Sep 17, 4:04am

Fri Sep 17, 3:04am

Fri Sep 17, 2:04am

Fri Sep 17, 1:04am

Fri Sep 17, 12:04am

Thu Sep 16, 11:04pm

Thu Sep 16, 10:04pm

Thu Sep 16, 8:04pm

Thu Sep 16, 7:04pm

Thu Sep 16, 6:04pm

Thu Sep 16, 5:04pm

Thu Sep 16, 4:04pm

Thu Sep 16, 3:04pm

Thu Sep 16, 2:04pm

Thu Sep 16, 1:05pm

Thu Sep 16, 12:04pm

Thu Sep 16, 11:05am

Thu Sep 16, 10:05am

Thu Sep 16, 9:04am

Thu Sep 16, 8:04am

Thu Sep 16, 7:04am

Thu Sep 16, 6:04am

Thu Sep 16, 5:04am

Thu Sep 16, 4:04am

Thu Sep 16, 3:04am

Thu Sep 16, 2:04am

Thu Sep 16, 1:04am

Thu Sep 16, 12:04am

Wed Sep 15, 11:04pm

Wed Sep 15, 10:04pm

Wed Sep 15, 9:04pm

Wed Sep 15, 8:04pm

Wed Sep 15, 7:04pm

Wed Sep 15, 6:04pm

Wed Sep 15, 5:05pm

Wed Sep 15, 4:04pm

Wed Sep 15, 3:04pm

Wed Sep 15, 2:04pm

Meta data:

ID: 280ad7f1-d388-4784-9abe-8d776db701a1
Link: https://api.weather.gov/products/280ad7f1-d388-4784-9abe-8d776db701a1